GW0821 Weather Reports


time (UTC)temp
F
wind
direction
speed
knots
gust
knots
rain 1hr
in
rain 24hr
in
rain mn
in
humidity
%
barometer
mb
20260508181552 60 153 2.6 8.7 0.00 0.00 0.00 79 1012.8
20260508180100 60 141 2.6 6.1 0.00 0.00 0.00 77 1012.6
20260508174601 61 168 1.7 6.1 0.00 0.00 0.00 74 1012.5
20260508173047 61 152 2.6 7.0 0.00 0.00 0.00 73 1012.3
20260508171543 62 214 2.6 7.8 0.00 0.00 0.00 71 1012.1
20260508170054 62 151 2.6 7.0 0.00 0.00 0.00 72 1012.0
20260508164553 63 188 1.7 10.4 0.00 0.00 0.00 71 1012.1
20260508163053 63 189 3.5 7.0 0.00 0.00 0.00 70 1011.9
20260508161549 64 139 3.5 7.0 0.00 0.00 0.00 68 1012.1
20260508160052 64 190 1.7 8.7 0.00 0.00 0.00 69 1012.1
20260508154548 65 164 2.6 9.6 0.00 0.00 0.00 66 1012.2
20260508153055 65 235 2.6 7.8 0.00 0.00 0.00 64 1011.9
20260508151551 67 217 1.7 12.2 0.00 0.00 0.00 61 1011.9
20260508150049 67 218 2.6 8.7 0.00 0.00 0.00 61 1011.6
20260508144551 65 0 1.7 9.6 0.00 0.00 0.00 62 1011.8
20260508143055 65 269 1.7 6.1 0.00 0.00 0.00 62 1012.0
20260508141601 65 152 4.3 6.1 0.00 0.00 0.00 62 1012.6
20260508140112 65 238 1.7 7.0 0.00 0.00 0.00 62 1012.8
20260508134545 65 162 0.9 7.8 0.00 0.00 0.00 63 1012.9
20260508133045 65 232 2.6 11.3 0.00 0.00 0.00 64 1012.9
20260508131605 66 156 2.6 8.7 0.00 0.00 0.00 62 1012.8
20260508130042 65 244 4.3 8.7 0.00 0.00 0.00 61 1012.8
20260508124548 65 184 2.6 10.4 0.00 0.00 0.00 63 1012.6
20260508123052 64 286 3.5 9.6 0.00 0.00 0.00 66 1012.7
20260508121550 64 160 2.6 9.6 0.00 0.00 0.00 64 1012.7
20260508120107 65 135 2.6 7.8 0.00 0.00 0.00 64 1012.6
20260508114559 65 129 4.3 7.8 0.00 0.00 0.00 63 1012.7
20260508113106 64 149 2.6 5.2 0.00 0.00 0.00 66 1012.7
20260508111551 64 142 3.5 8.7 0.00 0.00 0.00 63 1012.5
20260508110100 65 194 2.6 7.0 0.00 0.00 0.00 60 1012.6
20260508104547 65 151 3.5 7.8 0.00 0.00 0.00 58 1012.8
20260508103057 64 141 2.6 6.1 0.00 0.00 0.00 60 1013.1
20260508101551 63 250 0.9 7.0 0.00 0.00 0.00 62 1013.0
20260508100040 63 171 2.6 7.0 0.00 0.00 0.00 60 1013.3
20260508094539 62 242 1.7 6.1 0.00 0.00 0.00 57 1013.3
20260508093040 63 162 1.7 7.0 0.00 0.00 0.00 56 1013.0
20260508091543 63 173 1.7 7.0 0.00 0.00 0.00 57 1012.9
20260508090058 64 163 1.7 4.3 0.00 0.00 0.00 57 1012.8
20260508084547 62 0 0.0 1.7 0.00 0.00 0.00 64 1012.5
20260508083049 61 0 0.0 2.6 0.00 0.00 0.00 67 1012.3
20260508081547 60 347 0.9 5.2 0.00 0.00 0.00 71 1012.3
20260508080038 59 40 1.7 4.3 0.00 0.00 0.00 72 1012.4
20260508074547 58 53 0.0 3.5 0.00 0.00 0.00 75 1012.3
20260508073046 57 0 0.0 2.6 0.00 0.00 0.00 77 1012.2
20260508071543 56 128 0.9 3.5 0.00 0.00 0.00 80 1012.2
20260508070040 53 84 1.7 6.1 0.00 0.00 0.00 85 1012.2
20260508064549 52 71 1.7 5.2 0.00 0.00 0.00 87 1012.3
20260508063057 51 42 1.7 4.3 0.00 0.00 0.00 86 1012.2
20260508061546 48 0 0.0 0.9 0.00 0.00 0.00 93 1012.1
20260508060042 45 0 0.0 0.0 0.00 0.00 0.00 94 1012.1
20260508054548 44 0 0.0 0.9 0.00 0.00 0.00 94 1012.0
20260508053104 44 0 0.0 0.9 0.00 0.00 0.00 94 1011.8
20260508051550 44 146 0.0 0.9 0.00 0.00 0.00 94 1011.7
20260508050048 44 0 0.0 0.0 0.00 0.00 0.00 94 1011.7
20260508044547 44 0 0.0 0.0 0.00 0.00 0.00 94 1011.5
20260508043053 44 142 0.0 0.9 0.00 0.00 0.00 94 1011.4
20260508041551 45 0 0.0 0.0 0.00 0.00 0.00 94 1011.3
20260508040044 45 0 0.0 0.0 0.00 0.00 0.00 93 1011.2
20260508034542 45 0 0.0 0.0 0.00 0.00 0.00 93 1011.1
20260508033047 46 0 0.0 0.9 0.00 0.00 0.00 93 1011.2
20260508031549 46 0 0.0 0.0 0.00 0.00 0.00 93 1011.2
20260508030047 47 0 0.0 0.0 0.00 0.00 0.00 92 1011.3
20260508024544 47 0 0.0 0.0 0.00 0.00 0.00 92 1011.4
20260508023043 48 0 0.0 0.0 0.00 0.00 0.00 92 1011.4
20260508021544 48 0 0.0 0.0 0.00 0.00 0.00 92 1011.5
20260508020046 48 0 0.0 0.0 0.00 0.00 0.00 91 1011.5
20260508014540 48 0 0.0 0.0 0.00 0.00 0.00 91 1011.5
20260508013053 49 0 0.0 0.0 0.00 0.00 0.00 91 1011.7
20260508011544 49 0 0.0 0.0 0.00 0.00 0.00 91 1011.9
20260508010038 49 0 0.0 0.9 0.00 0.00 0.00 91 1011.9
20260508004537 49 0 0.0 0.9 0.00 0.00 0.00 91 1012.0
20260508003036 49 0 0.0 0.0 0.00 0.00 0.00 91 1012.2
20260508001606 49 0 0.0 0.9 0.00 0.00 0.00 90 1012.2
20260508000043 49 0 0.0 0.9 0.00 0.00 0.00 91 1012.1
20260507234549 49 0 0.0 0.9 0.00 0.00 0.00 91 1012.5
20260507233047 49 0 0.0 0.9 0.00 0.00 0.00 90 1012.6
20260507231549 50 0 0.0 0.9 0.00 0.00 0.00 90 1012.7
20260507230048 50 0 0.0 0.0 0.00 0.00 0.00 89 1012.7
20260507224554 51 0 0.0 0.0 0.00 0.00 0.00 89 1012.8
20260507223048 51 0 0.0 0.9 0.00 0.00 0.00 89 1012.8
20260507221552 52 0 0.0 0.0 0.00 0.00 0.00 88 1012.8
20260507220052 52 0 0.0 0.9 0.00 0.00 0.00 88 1013.0
20260507214551 53 0 0.0 0.0 0.00 0.00 0.00 87 1012.9
20260507213048 53 0 0.0 0.9 0.00 0.00 0.00 87 1012.9
20260507211547 53 0 0.0 0.0 0.00 0.00 0.00 86 1013.0
20260507210051 53 196 0.0 2.6 0.00 0.00 0.00 85 1012.8
20260507204553 54 0 0.0 1.7 0.00 0.00 0.00 86 1012.7
20260507203045 54 0 0.0 0.9 0.00 0.00 0.00 86 1012.7
20260507201542 55 0 0.0 2.6 0.00 0.00 0.00 85 1012.4
20260507200049 56 0 0.0 0.0 0.00 0.00 0.00 84 1012.2
20260507194544 56 0 0.0 0.0 0.00 0.00 0.00 83 1012.0
20260507193051 57 0 0.0 0.9 0.00 0.00 0.00 83 1011.8
20260507191550 57 0 0.9 3.5 0.00 0.00 0.00 82 1011.5
20260507190040 58 208 0.9 6.1 0.00 0.00 0.00 80 1011.3
20260507184550 59 149 1.7 5.2 0.00 0.00 0.00 79 1011.2
20260507183051 59 185 0.9 4.3 0.00 0.00 0.00 77 1010.9